Time,TemperatureF,DewpointF,PressureIn,WindDirection,WindDirectionDegrees,WindSpeedMPH,WindSpeedGustMPH,Humidity,HourlyPrecipIn,Conditions,Clouds,dailyrainin,SoftwareType,DateUTC
2013-03-11 00:02:00,61.0,57.0,30.12,ESE,122,4.0,7.0,86,99.99,,,-99.99,,2013-03-11 04:02:00,
2013-03-11 00:12:00,61.0,57.0,30.12,ESE,122,4.0,7.0,86,99.99,,,-99.99,,2013-03-11 04:12:00,
2013-03-11 00:22:00,61.0,57.0,30.12,ESE,117,3.0,5.0,86,99.99,,,-99.99,,2013-03-11 04:22:00,
2013-03-11 00:32:00,60.0,56.0,30.12,SE,129,2.0,4.0,87,99.99,,,-99.99,,2013-03-11 04:32:00,
2013-03-11 00:42:00,60.0,56.0,30.12,SE,129,2.0,4.0,87,99.99,,,-99.99,,2013-03-11 04:42:00,
2013-03-11 00:53:00,60.0,56.0,30.11,ESE,120,3.0,4.0,87,99.99,,,-99.99,,2013-03-11 04:53:00,
2013-03-11 01:03:00,59.0,56.0,30.11,ESE,121,3.0,4.0,89,99.99,,,-99.99,,2013-03-11 05:03:00,
2013-03-11 01:12:00,59.0,56.0,30.11,ESE,121,3.0,4.0,89,99.99,,,-99.99,,2013-03-11 05:12:00,
2013-03-11 01:22:00,59.0,56.0,30.11,ESE,110,3.0,5.0,90,99.99,,,-99.99,,2013-03-11 05:22:00,
2013-03-11 01:32:00,59.0,56.0,30.11,ESE,104,1.0,3.0,90,99.99,,,-99.99,,2013-03-11 05:32:00,
2013-03-11 01:42:00,59.0,56.0,30.11,ESE,104,1.0,3.0,90,99.99,,,-99.99,,2013-03-11 05:42:00,
2013-03-11 01:52:00,59.0,56.0,30.11,ESE,115,2.0,4.0,90,99.99,,,-99.99,,2013-03-11 05:52:00,
2013-03-11 02:02:00,58.0,56.0,30.10,ESE,122,3.0,4.0,92,99.99,,,-99.99,,2013-03-11 06:02:00,
2013-03-11 02:12:00,58.0,56.0,30.10,ESE,122,3.0,4.0,92,99.99,,,-99.99,,2013-03-11 06:12:00,
2013-03-11 02:22:00,58.0,56.0,30.10,ESE,120,2.0,4.0,93,99.99,,,-99.99,,2013-03-11 06:22:00,
2013-03-11 02:32:00,58.0,56.0,30.09,ESE,120,3.0,5.0,94,99.99,,,-99.99,,2013-03-11 06:32:00,
2013-03-11 02:42:00,58.0,56.0,30.09,ESE,120,3.0,5.0,94,99.99,,,-99.99,,2013-03-11 06:42:00,
2013-03-11 02:53:00,58.0,56.0,30.09,SE,124,4.0,5.0,94,99.99,,,-99.99,,2013-03-11 06:53:00,
2013-03-11 03:03:00,58.0,57.0,30.09,ESE,114,4.0,6.0,95,99.99,,,-99.99,,2013-03-11 07:03:00,
2013-03-11 03:12:00,58.0,57.0,30.08,ESE,111,4.0,5.0,95,99.99,,,-99.99,,2013-03-11 07:12:00,
2013-03-11 03:22:00,58.0,57.0,30.08,ESE,111,4.0,5.0,95,99.99,,,-99.99,,2013-03-11 07:22:00,
2013-03-11 03:32:00,58.0,57.0,30.07,ESE,107,3.0,4.0,95,99.99,,,-99.99,,2013-03-11 07:32:00,
2013-03-11 03:42:00,58.0,57.0,30.07,ESE,107,3.0,4.0,95,99.99,,,-99.99,,2013-03-11 07:42:00,
2013-03-11 03:52:00,57.0,56.0,30.07,ESE,103,4.0,5.0,95,99.99,,,-99.99,,2013-03-11 07:52:00,
2013-03-11 04:02:00,57.0,56.0,30.07,ESE,108,2.0,3.0,95,99.99,,,-99.99,,2013-03-11 08:02:00,
2013-03-11 04:12:00,57.0,56.0,30.07,ESE,108,2.0,3.0,95,99.99,,,-99.99,,2013-03-11 08:12:00,
2013-03-11 04:22:00,56.0,55.0,30.06,ESE,108,2.0,4.0,95,99.99,,,-99.99,,2013-03-11 08:22:00,
2013-03-11 04:32:00,55.0,54.0,30.06,North,0,0.0,0.0,95,99.99,,,-99.99,,2013-03-11 08:32:00,
2013-03-11 04:42:00,55.0,54.0,30.06,North,0,0.0,0.0,95,99.99,,,-99.99,,2013-03-11 08:42:00,
2013-03-11 04:52:00,55.0,54.0,30.05,North,0,0.0,0.0,95,99.99,,,-99.99,,2013-03-11 08:52:00,
2013-03-11 05:02:00,54.0,53.0,30.05,ESE,118,3.0,3.0,96,99.99,,,-99.99,,2013-03-11 09:02:00,
2013-03-11 05:12:00,54.0,53.0,30.05,ESE,118,3.0,3.0,96,99.99,,,-99.99,,2013-03-11 09:12:00,
2013-03-11 05:23:00,54.0,53.0,30.04,ESE,117,3.0,4.0,96,99.99,,,-99.99,,2013-03-11 09:23:00,
2013-03-11 05:32:00,54.0,53.0,30.04,North,0,0.0,0.0,97,99.99,,,-99.99,,2013-03-11 09:32:00,
2013-03-11 05:42:00,54.0,53.0,30.04,North,0,0.0,0.0,97,99.99,,,-99.99,,2013-03-11 09:42:00,
2013-03-11 05:52:00,54.0,53.0,30.04,North,0,0.0,0.0,98,99.99,,,-99.99,,2013-03-11 09:52:00,
2013-03-11 06:02:00,53.0,52.0,30.04,SE,129,1.0,4.0,98,99.99,,,-99.99,,2013-03-11 10:02:00,
2013-03-11 06:12:00,53.0,52.0,30.04,SE,129,1.0,4.0,98,99.99,,,-99.99,,2013-03-11 10:12:00,
2013-03-11 06:22:00,54.0,54.0,30.04,ESE,115,3.0,4.0,99,99.99,,,-99.99,,2013-03-11 10:22:00,
2013-03-11 06:32:00,55.0,55.0,30.04,ESE,115,3.0,5.0,100,99.99,,,-99.99,,2013-03-11 10:32:00,
2013-03-11 06:42:00,55.0,55.0,30.04,ESE,115,3.0,5.0,100,99.99,,,-99.99,,2013-03-11 10:42:00,
2013-03-11 06:52:00,56.0,56.0,30.04,ESE,113,4.0,5.0,100,99.99,,,-99.99,,2013-03-11 10:52:00,
2013-03-11 07:02:00,56.0,56.0,30.03,ESE,108,4.0,6.0,100,99.99,,,-99.99,,2013-03-11 11:02:00,
2013-03-11 07:12:00,56.0,56.0,30.03,ESE,108,4.0,6.0,100,99.99,,,-99.99,,2013-03-11 11:12:00,
2013-03-11 07:22:00,56.0,56.0,30.04,ESE,104,5.0,7.0,100,99.99,,,-99.99,,2013-03-11 11:22:00,
2013-03-11 07:32:00,56.0,56.0,30.04,SE,143,5.0,6.0,100,99.99,,,-99.99,,2013-03-11 11:32:00,
2013-03-11 07:42:00,56.0,56.0,30.04,SE,143,5.0,6.0,100,99.99,,,-99.99,,2013-03-11 11:42:00,
2013-03-11 07:53:00,56.0,56.0,30.04,SE,134,3.0,4.0,100,99.99,,,-99.99,,2013-03-11 11:53:00,
2013-03-11 08:02:00,57.0,57.0,30.05,ESE,121,3.0,5.0,100,99.99,,,-99.99,,2013-03-11 12:02:00,
2013-03-11 08:12:00,57.0,57.0,30.05,ESE,121,3.0,5.0,100,99.99,,,-99.99,,2013-03-11 12:12:00,
2013-03-11 08:22:00,57.0,57.0,30.05,ESE,122,4.0,6.0,100,99.99,,,-99.99,,2013-03-11 12:22:00,
2013-03-11 08:32:00,57.0,57.0,30.05,ESE,122,3.0,5.0,100,99.99,,,-99.99,,2013-03-11 12:32:00,
2013-03-11 08:43:00,57.0,57.0,30.05,ESE,122,3.0,5.0,100,99.99,,,-99.99,,2013-03-11 12:43:00,
2013-03-11 08:53:00,58.0,58.0,30.05,ESE,111,2.0,5.0,100,99.99,,,-99.99,,2013-03-11 12:53:00,
2013-03-11 09:02:00,59.0,59.0,30.05,SE,135,4.0,7.0,100,99.99,,,-99.99,,2013-03-11 13:02:00,
2013-03-11 09:12:00,59.0,59.0,30.05,SE,135,4.0,7.0,100,99.99,,,-99.99,,2013-03-11 13:12:00,
2013-03-11 09:22:00,61.0,61.0,30.05,ESE,108,3.0,8.0,99,99.99,,,-99.99,,2013-03-11 13:22:00,
2013-03-11 09:32:00,62.0,61.0,30.06,South,170,4.0,8.0,95,99.99,,,-99.99,,2013-03-11 13:32:00,
2013-03-11 09:42:00,62.0,61.0,30.06,South,170,4.0,8.0,95,99.99,,,-99.99,,2013-03-11 13:42:00,
2013-03-11 09:53:00,65.0,59.0,30.06,SE,127,5.0,9.0,82,99.99,,,-99.99,,2013-03-11 13:53:00,
2013-03-11 10:02:00,67.0,58.0,30.06,SE,127,8.0,16.0,74,99.99,,,-99.99,,2013-03-11 14:02:00,
2013-03-11 10:12:00,67.0,58.0,30.06,SE,127,8.0,16.0,74,99.99,,,-99.99,,2013-03-11 14:12:00,
2013-03-11 10:22:00,69.0,59.0,30.06,SSE,158,7.0,13.0,70,99.99,,,-99.99,,2013-03-11 14:22:00,
2013-03-11 10:33:00,71.0,59.0,30.06,SE,142,7.0,16.0,65,99.99,,,-99.99,,2013-03-11 14:33:00,
2013-03-11 10:42:00,71.0,59.0,30.06,SE,142,7.0,16.0,65,99.99,,,-99.99,,2013-03-11 14:42:00,
2013-03-11 10:52:00,72.0,57.0,30.06,SSE,159,8.0,15.0,60,99.99,,,-99.99,,2013-03-11 14:52:00,
2013-03-11 11:03:00,73.0,58.0,30.06,SE,141,9.0,17.0,59,99.99,,,-99.99,,2013-03-11 15:03:00,
2013-03-11 11:12:00,73.0,58.0,30.06,SE,141,9.0,17.0,59,99.99,,,-99.99,,2013-03-11 15:12:00,
2013-03-11 11:22:00,73.0,58.0,30.06,SSE,160,9.0,16.0,60,99.99,,,-99.99,,2013-03-11 15:22:00,
2013-03-11 11:32:00,74.0,58.0,30.05,SSE,152,9.0,16.0,58,99.99,,,-99.99,,2013-03-11 15:32:00,
2013-03-11 11:42:00,74.0,58.0,30.05,SSE,152,9.0,16.0,58,99.99,,,-99.99,,2013-03-11 15:42:00,
2013-03-11 11:53:00,73.0,57.0,30.05,SSE,160,11.0,20.0,58,99.99,,,-99.99,,2013-03-11 15:53:00,
2013-03-11 12:02:00,75.0,58.0,30.04,East,90,10.0,20.0,56,99.99,,,-99.99,,2013-03-11 16:02:00,
2013-03-11 12:12:00,75.0,58.0,30.04,East,90,10.0,20.0,56,99.99,,,-99.99,,2013-03-11 16:12:00,
2013-03-11 12:22:00,76.0,58.0,30.04,South,169,9.0,16.0,54,99.99,,,-99.99,,2013-03-11 16:22:00,
2013-03-11 12:32:00,77.0,58.0,30.03,SSE,156,9.0,16.0,52,99.99,,,-99.99,,2013-03-11 16:32:00,
2013-03-11 12:43:00,77.0,58.0,30.03,SSE,156,9.0,16.0,52,99.99,,,-99.99,,2013-03-11 16:43:00,
2013-03-11 12:52:00,77.0,57.0,30.04,South,170,11.0,21.0,51,99.99,,,-99.99,,2013-03-11 16:52:00,
2013-03-11 13:02:00,76.0,58.0,30.04,SSE,166,10.0,19.0,53,99.99,,,-99.99,,2013-03-11 17:02:00,
2013-03-11 13:15:00,76.0,58.0,30.04,SSE,166,10.0,19.0,53,99.99,,,-99.99,,2013-03-11 17:15:00,
2013-03-11 13:26:00,76.0,58.0,30.04,South,184,8.0,15.0,53,99.99,,,-99.99,,2013-03-11 17:26:00,
2013-03-11 13:35:00,77.0,57.0,30.03,SSE,149,8.0,16.0,51,99.99,,,-99.99,,2013-03-11 17:35:00,
2013-03-11 13:42:00,77.0,57.0,30.03,SSE,149,8.0,16.0,51,99.99,,,-99.99,,2013-03-11 17:42:00,
2013-03-11 13:53:00,77.0,57.0,30.03,SSW,201,7.0,12.0,50,99.99,,,-99.99,,2013-03-11 17:53:00,
2013-03-11 14:02:00,77.0,57.0,30.04,SW,215,8.0,11.0,50,99.99,,,-99.99,,2013-03-11 18:02:00,
2013-03-11 14:12:00,77.0,57.0,30.04,SW,215,8.0,11.0,50,99.99,,,-99.99,,2013-03-11 18:12:00,
2013-03-11 14:23:00,77.0,57.0,30.03,SSW,210,8.0,11.0,50,99.99,,,-99.99,,2013-03-11 18:23:00,
2013-03-11 14:32:00,77.0,57.0,30.03,South,188,9.0,14.0,50,99.99,,,-99.99,,2013-03-11 18:32:00,
2013-03-11 14:42:00,77.0,57.0,30.03,South,188,9.0,14.0,50,99.99,,,-99.99,,2013-03-11 18:42:00,
2013-03-11 14:53:00,77.0,57.0,30.02,SSW,203,6.0,9.0,51,99.99,,,-99.99,,2013-03-11 18:53:00,
2013-03-11 15:02:00,78.0,58.0,30.01,SSE,162,6.0,10.0,50,99.99,,,-99.99,,2013-03-11 19:02:00,
2013-03-11 15:12:00,78.0,58.0,30.01,SSE,162,6.0,10.0,50,99.99,,,-99.99,,2013-03-11 19:12:00,
2013-03-11 15:23:00,79.0,56.0,30.00,SSW,212,8.0,14.0,46,99.99,,,-99.99,,2013-03-11 19:23:00,
2013-03-11 15:33:00,79.0,57.0,29.99,South,181,8.0,13.0,47,99.99,,,-99.99,,2013-03-11 19:33:00,
2013-03-11 15:42:00,79.0,57.0,29.99,South,181,8.0,13.0,47,99.99,,,-99.99,,2013-03-11 19:42:00,
2013-03-11 15:53:00,79.0,56.0,29.97,SSW,198,7.0,13.0,46,99.99,,,-99.99,,2013-03-11 19:53:00,
2013-03-11 16:02:00,80.0,55.0,29.96,SW,232,8.0,12.0,43,99.99,,,-99.99,,2013-03-11 20:02:00,
2013-03-11 16:12:00,80.0,55.0,29.96,SW,232,8.0,12.0,43,99.99,,,-99.99,,2013-03-11 20:12:00,
2013-03-11 16:22:00,82.0,55.0,29.96,SSW,212,5.0,8.0,40,99.99,,,-99.99,,2013-03-11 20:22:00,
2013-03-11 16:32:00,82.0,54.0,29.95,SW,214,9.0,13.0,38,99.99,,,-99.99,,2013-03-11 20:32:00,
2013-03-11 16:43:00,82.0,54.0,29.95,SW,214,9.0,13.0,38,99.99,,,-99.99,,2013-03-11 20:43:00,
2013-03-11 16:53:00,81.0,55.0,29.95,SSW,211,8.0,12.0,41,99.99,,,-99.99,,2013-03-11 20:53:00,
2013-03-11 17:03:00,81.0,56.0,29.94,SSW,203,9.0,15.0,42,99.99,,,-99.99,,2013-03-11 21:03:00,
2013-03-11 17:12:00,81.0,56.0,29.94,SSW,203,9.0,15.0,42,99.99,,,-99.99,,2013-03-11 21:12:00,
2013-03-11 17:22:00,80.0,55.0,29.93,SSW,210,9.0,14.0,43,99.99,,,-99.99,,2013-03-11 21:22:00,
2013-03-11 17:32:00,80.0,55.0,29.93,South,183,9.0,15.0,43,99.99,,,-99.99,,2013-03-11 21:32:00,
2013-03-11 17:44:00,80.0,55.0,29.93,South,183,9.0,15.0,43,99.99,,,-99.99,,2013-03-11 21:44:00,
2013-03-11 17:53:00,79.0,56.0,29.94,SSW,200,4.0,7.0,45,99.99,,,-99.99,,2013-03-11 21:53:00,
2013-03-11 18:03:00,78.0,56.0,29.94,South,184,6.0,9.0,46,99.99,,,-99.99,,2013-03-11 22:03:00,
2013-03-11 18:12:00,78.0,56.0,29.94,South,184,6.0,9.0,46,99.99,,,-99.99,,2013-03-11 22:12:00,
2013-03-11 18:22:00,78.0,57.0,29.95,SSE,156,4.0,8.0,48,99.99,,,-99.99,,2013-03-11 22:22:00,
2013-03-11 18:32:00,78.0,57.0,29.94,South,181,3.0,5.0,48,99.99,,,-99.99,,2013-03-11 22:32:00,
2013-03-11 18:43:00,78.0,57.0,29.94,South,181,3.0,5.0,48,99.99,,,-99.99,,2013-03-11 22:43:00,
2013-03-11 18:53:00,77.0,56.0,29.94,SE,145,6.0,11.0,49,99.99,,,-99.99,,2013-03-11 22:53:00,
2013-03-11 19:03:00,77.0,57.0,29.94,SE,131,4.0,7.0,50,99.99,,,-99.99,,2013-03-11 23:03:00,
2013-03-11 19:12:00,77.0,57.0,29.94,SE,131,4.0,7.0,50,99.99,,,-99.99,,2013-03-11 23:12:00,
2013-03-11 19:22:00,76.0,57.0,29.95,SSE,158,3.0,7.0,52,99.99,,,-99.99,,2013-03-11 23:22:00,
2013-03-11 19:32:00,76.0,58.0,29.95,SSE,152,5.0,8.0,53,99.99,,,-99.99,,2013-03-11 23:32:00,
2013-03-11 19:43:00,75.0,57.0,29.94,South,176,6.0,11.0,54,99.99,,,-99.99,,2013-03-11 23:43:00,
2013-03-11 19:53:00,75.0,57.0,29.94,South,176,6.0,11.0,54,99.99,,,-99.99,,2013-03-11 23:53:00,
2013-03-11 20:02:00,74.0,57.0,29.93,South,190,6.0,10.0,56,99.99,,,-99.99,,2013-03-12 00:02:00,
2013-03-11 20:12:00,74.0,57.0,29.93,South,190,6.0,10.0,56,99.99,,,-99.99,,2013-03-12 00:12:00,
2013-03-11 20:23:00,73.0,57.0,29.93,SSE,148,5.0,9.0,57,99.99,,,-99.99,,2013-03-12 00:23:00,
2013-03-11 20:33:00,72.0,57.0,29.93,SSE,162,5.0,9.0,59,99.99,,,-99.99,,2013-03-12 00:33:00,
2013-03-11 20:42:00,72.0,57.0,29.93,SSE,162,5.0,9.0,59,99.99,,,-99.99,,2013-03-12 00:42:00,
2013-03-11 21:02:00,72.0,59.0,29.93,SSE,155,6.0,11.0,63,99.99,,,-99.99,,2013-03-12 01:02:00,
2013-03-11 21:12:00,72.0,59.0,29.93,SSE,155,6.0,11.0,63,99.99,,,-99.99,,2013-03-12 01:12:00,
2013-03-11 21:22:00,71.0,58.0,29.94,SSE,158,7.0,10.0,64,99.99,,,-99.99,,2013-03-12 01:22:00,
2013-03-11 21:33:00,71.0,59.0,29.95,SSW,204,6.0,10.0,65,99.99,,,-99.99,,2013-03-12 01:33:00,
2013-03-11 21:42:00,71.0,59.0,29.95,SSW,204,6.0,10.0,65,99.99,,,-99.99,,2013-03-12 01:42:00,
2013-03-11 21:53:00,71.0,59.0,29.96,South,187,6.0,10.0,66,99.99,,,-99.99,,2013-03-12 01:53:00,
2013-03-11 22:02:00,71.0,59.0,29.97,SW,215,7.0,10.0,66,99.99,,,-99.99,,2013-03-12 02:02:00,
2013-03-11 22:12:00,71.0,59.0,29.97,SW,215,7.0,10.0,66,99.99,,,-99.99,,2013-03-12 02:12:00,
2013-03-11 22:22:00,71.0,59.0,29.96,South,181,6.0,10.0,67,99.99,,,-99.99,,2013-03-12 02:22:00,
2013-03-11 22:32:00,70.0,59.0,29.96,South,177,6.0,12.0,69,99.99,,,-99.99,,2013-03-12 02:32:00,
2013-03-11 22:42:00,70.0,59.0,29.96,South,177,6.0,12.0,69,99.99,,,-99.99,,2013-03-12 02:42:00,
2013-03-11 22:52:00,71.0,60.0,29.97,SSW,207,9.0,15.0,69,99.99,,,-99.99,,2013-03-12 02:52:00,
2013-03-11 23:02:00,71.0,60.0,29.98,SSW,193,5.0,9.0,69,99.99,,,-99.99,,2013-03-12 03:02:00,
2013-03-11 23:12:00,71.0,60.0,29.98,SSW,193,5.0,9.0,69,99.99,,,-99.99,,2013-03-12 03:12:00,
2013-03-11 23:22:00,70.0,60.0,29.98,South,188,5.0,7.0,71,99.99,,,-99.99,,2013-03-12 03:22:00,
2013-03-11 23:32:00,69.0,60.0,29.98,SE,146,5.0,8.0,72,99.99,,,-99.99,,2013-03-12 03:32:00,
2013-03-11 23:42:00,69.0,60.0,29.98,SE,146,5.0,8.0,72,99.99,,,-99.99,,2013-03-12 03:42:00,
2013-03-11 23:53:00,69.0,60.0,29.97,SSE,165,5.0,10.0,73,99.99,,,-99.99,,2013-03-12 03:53:00,